STARLINK-1356, 45564

Orbit data source: Space-Track

STARLINK-1356, 45564 is a payload satellite owned by SpaceX/Seattle (US) in LEO that was launched on Wed, 22 Apr 2020 UTC via an FALCON 9 launch vehicle from the Air Force Eastern Test Range (AFETR). Payload-class satellites include a variety of spacecraft equipped with specific instruments for various scientific and technological missions. These include communications satellites like Starlink; space stations such as the ISS; scientific satellites like the Hubble; Earth observation satellites from companies like Planet Labs, Umbra, and HawkEye 360; GPS; miniature CubeSats for education and research; and military/defense satellites.

Loading next visibility...
Identifier
45564, 2020-025AK
Orbit
LEO
Country
Flag of USUS
Related business
Manufacturer
SpaceX/Seattle
Mission
Operational Commercial Communications
Bus & Motor
STARLINK, Unknown motor
Mass
260 kg wet, ~248 kg dry
Launch date (UTC)
2020-04-22 (5 years ago)
Launch vehicle
FALCON 9
Launch site
Air Force Eastern Test Range (AFETR)
Object type
Payload
Rocket body
Debris
Shape & HBR
Box + 1 Pan, 10.1 m
Radar Cross Section
13.562 m², Large (>1 m²)

Expand to show TLE details & history
Last TLE update: 13 hours ago

TLE from 13 hours ago
0 STARLINK-1356
1 45564U 20025AK  25288.63929778  .00012301  00000-0  84353-3 0  9992
2 45564  53.0562  17.7726 0001605  98.3809 261.7362 15.06388374303509
Epoch: 2025-10-15T15:20Z
TLE epoch observation values (Epoch: 2025-10-15T15:20:35.328Z)
Latitude
-0.00001°
Longitude
123.21491°
Altitude
548.286 km
Speed
7.589 km/s
True Right ascension
01h 11m 05s
True Declination
0° 00' 00"
Sunlit
Object was in full shadow at epoch
Visualization orbit readout
Latitude
Unknown
Longitude
Unknown
Altitude
Unknown
Speed
Unknown
Apparent Right ascension
Unknown
Apparent Declination
Unknown
Sunlit
N/A
Visualization observer readout
Local Sidereal Time
22:53:20
Azimuth
Unknown
Elevation
Unknown
Doppler factor
Unknown
Orbital elements
Apogee altitude
548.629 km
Perigee altitude
546.406 km
Semi-major axis
6,925.655 km
Eccentricity
0.00016
Inclination
53.0562°
RAAN
17.7726°
Arg. of periapsis
98.3809°
True anomaly
261.718°
Mean anomaly
261.7362°
Eccentric anomaly
261.7271°
Mean motion
3.76575 °/min
Orbital period
95.6 mins
BSTAR
0.00084353
Loading maneuver chart data...
Computing Atmospheric mass density...

Documentation

Showing up to 5 results
|